• în România
  • Lista ţărilor
  • Pe 7 zile
  • Temperatura apei
  • Hartă satelitară
  • Meteo pe hartă
  • Widget-uri
  • user-avatar
    Intrare

    Meteo pe oră la Salzburg

    Astăzi, 22 Noiembrie, Miercuri

    Timp Temperatura Precipitaţii Vânt Presiune Umiditate
    00:00 -3°C° 0 mm 2 m/s 624 mmHg 87%
    01:00 -3°C° 0 mm 2 m/s 623 mmHg 84%
    02:00 -3°C° 0 mm 2 m/s 623 mmHg 83%
    03:00 -3°C° 0 mm 2 m/s 623 mmHg 81%
    04:00 -3°C° 0 mm 2 m/s 623 mmHg 80%
    05:00 -3°C° 0 mm 2 m/s 623 mmHg 79%
    06:00 -3°C° 0 mm 2 m/s 623 mmHg 78%
    07:00 -3°C° 0 mm 2 m/s 623 mmHg 78%
    08:00 -1°C° 0 mm 2 m/s 623 mmHg 79%
    09:00 +1°C° 0 mm 2 m/s 624 mmHg 80%
    10:00 +3°C° 0 mm 1 m/s 624 mmHg 81%
    11:00 +4°C° 0 mm 1 m/s 625 mmHg 82%
    12:00 +5°C° 0 mm 1 m/s 625 mmHg 84%
    13:00 +6°C° 0 mm 1 m/s 625 mmHg 84%
    14:00 +5°C° 0 mm 1 m/s 624 mmHg 83%
    15:00 +4°C° 0 mm 1 m/s 624 mmHg 81%
    16:00 +2°C° 0 mm 1 m/s 624 mmHg 80%
    17:00 +1°C° 0 mm 1 m/s 623 mmHg 79%
    18:00 -2°C° 0 mm 2 m/s 623 mmHg 78%
    19:00 -3°C° 0 mm 2 m/s 623 mmHg 77%
    20:00 -3°C° 0 mm 2 m/s 623 mmHg 76%
    21:00 -3°C° 0 mm 2 m/s 623 mmHg 76%
    22:00 -4°C° 0 mm 2 m/s 623 mmHg 76%
    23:00 -4°C° 0 mm 2 m/s 622 mmHg 76%

    Mâine, 23 Noiembrie, Joi

    Timp Temperatura Precipitaţii Vânt Presiune Umiditate
    00:00 -4°C° 0 mm 2 m/s 622 mmHg 76%
    01:00 -4°C° 0 mm 2 m/s 622 mmHg 76%
    02:00 -4°C° 0 mm 2 m/s 622 mmHg 76%
    03:00 -4°C° 0 mm 2 m/s 622 mmHg 77%
    04:00 -4°C° 0 mm 2 m/s 622 mmHg 77%
    05:00 -4°C° 0 mm 2 m/s 622 mmHg 78%
    06:00 -4°C° 0 mm 2 m/s 622 mmHg 79%
    07:00 -4°C° 0 mm 2 m/s 622 mmHg 80%
    08:00 -3°C° 0 mm 2 m/s 622 mmHg 79%
    09:00 -1°C° 0 mm 2 m/s 623 mmHg 79%
    10:00 +1°C° 0 mm 2 m/s 624 mmHg 79%
    11:00 +3°C° 0 mm 1 m/s 624 mmHg 80%
    12:00 +4°C° 0 mm 1 m/s 624 mmHg 82%
    13:00 +5°C° 0 mm 1 m/s 624 mmHg 83%
    14:00 +4°C° 0 mm 1 m/s 624 mmHg 83%
    15:00 +3°C° 0 mm 1 m/s 624 mmHg 84%
    16:00 +2°C° 0 mm 1 m/s 624 mmHg 85%
    17:00 +1°C° 0 mm 1 m/s 624 mmHg 81%
    18:00 -1°C° 0 mm 2 m/s 624 mmHg 77%
    19:00 -2°C° 0 mm 2 m/s 624 mmHg 73%
    20:00 -2°C° 0 mm 2 m/s 625 mmHg 72%
    21:00 -2°C° 0 mm 2 m/s 625 mmHg 70%
    22:00 -2°C° 0 mm 2 m/s 625 mmHg 68%
    23:00 -3°C° 0 mm 2 m/s 625 mmHg 69%

    Poimâine, 24 Noiembrie, Vineri

    Timp Temperatura Precipitaţii Vânt Presiune Umiditate
    00:00 -1°C° 0 mm 1 m/s 625 mmHg 71%
    01:00 -1°C° 0 mm 1 m/s 626 mmHg 72%
    02:00 -1°C° 0 mm 1 m/s 625 mmHg 73%
    03:00 -1°C° 0 mm 1 m/s 625 mmHg 74%
    04:00 -3°C° 0 mm 2 m/s 625 mmHg 75%
    05:00 -3°C° 0 mm 2 m/s 625 mmHg 76%
    06:00 -3°C° 0 mm 2 m/s 625 mmHg 76%
    07:00 -4°C° 0 mm 2 m/s 625 mmHg 77%
    08:00 -2°C° 0 mm 2 m/s 625 mmHg 76%
    09:00 -1°C° 0 mm 2 m/s 626 mmHg 75%
    10:00 +2°C° 0 mm 2 m/s 626 mmHg 74%
    11:00 +3°C° 0 mm 2 m/s 626 mmHg 75%
    12:00 +4°C° 0 mm 2 m/s 626 mmHg 75%
    13:00 +5°C° 0 mm 2 m/s 626 mmHg 76%
    14:00 +3°C° 0 mm 2 m/s 625 mmHg 78%
    15:00 +2°C° 0 mm 2 m/s 625 mmHg 80%
    16:00 +1°C° 0 mm 2 m/s 625 mmHg 83%
    17:00 -1°C° 0 mm 2 m/s 625 mmHg 82%
    18:00 -2°C° 0 mm 2 m/s 625 mmHg 81%
    19:00 -3°C° 0 mm 2 m/s 625 mmHg 80%
    20:00 -1°C° 0 mm 1 m/s 625 mmHg 79%
    21:00 -1°C° 0 mm 1 m/s 625 mmHg 77%
    22:00 -1°C° 0 mm 1 m/s 625 mmHg 76%
    23:00 -1°C° 0 mm 1 m/s 624 mmHg 77%

    25 Noiembrie, Sâmbătă

    Timp Temperatura Precipitaţii Vânt Presiune Umiditate
    00:00 -1°C° 0 mm 1 m/s 624 mmHg 77%
    01:00 -1°C° 0 mm 1 m/s 624 mmHg 78%
    02:00 -3°C° 0 mm 2 m/s 623 mmHg 80%
    03:00 -4°C° 0 mm 2 m/s 622 mmHg 82%
    04:00 -4°C° 0 mm 2 m/s 622 mmHg 84%
    05:00 -4°C° 0 mm 2 m/s 621 mmHg 85%
    06:00 -4°C° 0 mm 2 m/s 621 mmHg 87%
    07:00 -4°C° 0 mm 2 m/s 621 mmHg 88%
    08:00 -2°C° 0 mm 2 m/s 620 mmHg 87%
    09:00 -1°C° 0 mm 2 m/s 620 mmHg 85%
    10:00 0°C° 0 mm 3 m/s 620 mmHg 84%
    11:00 +2°C° 0 mm 2 m/s 620 mmHg 85%
    12:00 +2°C° 0 mm 2 m/s 620 mmHg 85%
    13:00 +3°C° 0 mm 2 m/s 620 mmHg 86%
    14:00 +2°C° 0,3 mm 2 m/s 621 mmHg 88%
    15:00 +2°C° 0,3 mm 2 m/s 621 mmHg 91%
    16:00 +1°C° 0,3 mm 2 m/s 621 mmHg 94%
    17:00 -1°C° 1,1 mm 3 m/s 621 mmHg 92%
    18:00 -2°C° 1,1 mm 3 m/s 622 mmHg 91%
    19:00 -2°C° 1,1 mm 3 m/s 622 mmHg 89%
    20:00 -4°C° 0,9 mm 3 m/s 622 mmHg 90%
    21:00 -7°C° 0,9 mm 4 m/s 622 mmHg 90%
    22:00 -8°C° 0,9 mm 4 m/s 623 mmHg 90%
    23:00 -7°C° 0,5 mm 3 m/s 623 mmHg 90%

    26 Noiembrie, Duminică

    Timp Temperatura Precipitaţii Vânt Presiune Umiditate
    00:00 -8°C° 0,5 mm 3 m/s 623 mmHg 90%
    01:00 -8°C° 0,5 mm 3 m/s 623 mmHg 90%
    02:00 -9°C° 0,1 mm 3 m/s 623 mmHg 90%
    03:00 -9°C° 0,1 mm 2 m/s 623 mmHg 89%
    04:00 -9°C° 0,1 mm 2 m/s 623 mmHg 89%
    05:00 -9°C° 0,1 mm 2 m/s 624 mmHg 88%
    06:00 -10°C° 0,1 mm 2 m/s 624 mmHg 87%
    07:00 -10°C° 0,1 mm 2 m/s 624 mmHg 87%
    08:00 -9°C° 0,2 mm 2 m/s 625 mmHg 85%
    09:00 -9°C° 0,2 mm 2 m/s 625 mmHg 83%
    10:00 -8°C° 0,2 mm 2 m/s 625 mmHg 81%
    11:00 -8°C° 0,3 mm 2 m/s 625 mmHg 81%
    12:00 -8°C° 0,3 mm 2 m/s 625 mmHg 81%
    13:00 -8°C° 0,3 mm 2 m/s 625 mmHg 81%
    14:00 -8°C° 0,2 mm 2 m/s 625 mmHg 83%
    15:00 -8°C° 0,2 mm 2 m/s 625 mmHg 84%
    16:00 -8°C° 0,2 mm 2 m/s 625 mmHg 85%
    17:00 -9°C° 0,1 mm 2 m/s 625 mmHg 87%
    18:00 -9°C° 0,1 mm 2 m/s 625 mmHg 88%
    19:00 -9°C° 0,1 mm 2 m/s 625 mmHg 89%
    20:00 -10°C° 0,1 mm 2 m/s 625 mmHg 88%
    21:00 -10°C° 0,1 mm 2 m/s 626 mmHg 88%
    22:00 -10°C° 0,1 mm 2 m/s 626 mmHg 87%
    23:00 -10°C° 0,2 mm 2 m/s 626 mmHg 87%

    27 Noiembrie, Luni

    Timp Temperatura Precipitaţii Vânt Presiune Umiditate
    00:00 -10°C° 0,2 mm 2 m/s 625 mmHg 87%
    01:00 -12°C° 0,2 mm 3 m/s 625 mmHg 88%
    02:00 -10°C° 0,3 mm 2 m/s 625 mmHg 88%
    03:00 -10°C° 0,3 mm 2 m/s 625 mmHg 89%
    04:00 -10°C° 0,3 mm 2 m/s 625 mmHg 90%
    05:00 -10°C° 0,3 mm 3 m/s 626 mmHg 90%
    06:00 -10°C° 0,3 mm 3 m/s 626 mmHg 91%
    07:00 -10°C° 0,3 mm 3 m/s 626 mmHg 91%
    08:00 -10°C° 0,3 mm 3 m/s 626 mmHg 89%
    09:00 -9°C° 0,3 mm 3 m/s 626 mmHg 88%
    10:00 -9°C° 0,3 mm 3 m/s 627 mmHg 86%
    11:00 -8°C° 0,3 mm 3 m/s 627 mmHg 85%
    12:00 -8°C° 0,3 mm 3 m/s 626 mmHg 84%
    13:00 -8°C° 0,3 mm 3 m/s 626 mmHg 83%
    14:00 -8°C° 0,3 mm 3 m/s 626 mmHg 85%
    15:00 -7°C° 0,3 mm 2 m/s 626 mmHg 88%
    16:00 -8°C° 0,3 mm 2 m/s 626 mmHg 90%
    17:00 -8°C° 0,2 mm 2 m/s 626 mmHg 90%
    18:00 -9°C° 0,2 mm 2 m/s 626 mmHg 91%
    19:00 -9°C° 0,2 mm 2 m/s 626 mmHg 92%
    20:00 -10°C° 0,1 mm 2 m/s 625 mmHg 90%
    21:00 -10°C° 0,1 mm 2 m/s 625 mmHg 89%
    22:00 -10°C° 0,1 mm 2 m/s 625 mmHg 87%
    23:00 -10°C° 0 mm 2 m/s 624 mmHg 86%
    Arată mai mult